This is the latest recevied weather packets stored in our database for station/object IK3ZGB. If no packets are shown the sender has not sent any weather packets the latest 10 day(s).
| Time | Temp. | Humidity | Pressure | Rain* | Wind** | Luminosity | Snow |
|---|---|---|---|---|---|---|---|
| 1777542249 | 18.89° C | 50% | 1027.1 hPa | - | - | - | - |
| 1777541650 | 18.89° C | 53% | 1027 hPa | - | - | - | - |
| 1777541049 | 17.78° C | 52% | 1026.9 hPa | - | - | - | - |
| 1777540448 | 17.22° C | 52% | 1027.2 hPa | - | - | - | - |
| 1777539848 | 17.78° C | 51% | 1027.3 hPa | - | - | - | - |
| 1777539249 | 17.78° C | 51% | 1027.1 hPa | - | - | - | - |
| 1777538648 | 17.78° C | 52% | 1027.3 hPa | - | - | - | - |
| 1777538049 | 18.33° C | 52% | 1027.2 hPa | - | - | - | - |
| 1777537448 | 17.78° C | 52% | 1027 hPa | - | - | - | - |
| 1777536849 | 17.22° C | 53% | 1027.2 hPa | - | - | - | - |
| 1777536248 | 16.11° C | 51% | 1027 hPa | - | - | - | - |
| 1777535572 | 16.67° C | 50% | 1027.3 hPa | - | - | - | - |
| 1777534972 | 17.78° C | 53% | 1027.4 hPa | - | - | - | - |
| 1777534372 | 17.22° C | 52% | 1027.1 hPa | - | - | - | - |
| 1777533771 | 17.78° C | 54% | 1027.4 hPa | - | - | - | - |
| 1777533171 | 16.67° C | 55% | 1027.4 hPa | - | - | - | - |
| 1777532572 | 15.56° C | 57% | 1027.2 hPa | - | - | - | - |
| 1777531972 | 14.44° C | 58% | 1027 hPa | - | - | - | - |
| 1777531372 | 13.33° C | 60% | 1026.8 hPa | - | - | - | - |
| 1777530772 | 13.33° C | 60% | 1026.9 hPa | - | - | - | - |
| 1777530172 | 13.33° C | 61% | 1026.6 hPa | - | - | - | - |
| 1777529571 | 12.78° C | 60% | 1026.8 hPa | - | - | - | - |
| 1777528973 | 12.78° C | 60% | 1026.7 hPa | - | - | - | - |
| 1777528372 | 12.78° C | 62% | 1026.6 hPa | - | - | - | - |
| 1777527771 | 12.78° C | 62% | 1026.7 hPa | - | - | - | - |
* Rain since midnight (hover to see other rain measurements)
** Current wind speed in m/s (hover to see current wind gust speed)